Weather History for Spirit of St Louis, MO

Change the Weather History Date:

Thursday, March 28, 2013

  Actual Average Record
Temperature  
Mean Temperature 46 °F -  
Max Temperature 57 °F 59 °F 81 °F (2012)
Min Temperature 36 °F 36 °F 28 °F (2001)
Degree Days  
Heating Degree Days 20    
Moisture  
Dew Point 31 °F    
Average Humidity 57    
Maximum Humidity 76    
Minimum Humidity 45    
Precipitation  
Precipitation 0.00 in - - ()
Sea Level Pressure  
Sea Level Pressure 30.30 in    
Wind  
Wind Speed 5 mph (East)    
Max Wind Speed 12 mph    
Max Gust Speed 18 mph    
Visibility 10 miles    
Events      
Averages and records for this station are not official NWS values.
T = Trace of Precipitation, MM = Missing Value Source: NWS Daily Summary

Daily Weather History Graph

Daily Weather History Graph

Search for Another Location

Airport:

Trip Planner

Search our weather history database for the weather conditions in past years. The results will help you decide how hot, cold, wet, or windy it might be!

Date:

Astronomy

Mar. 28, 2013 Rise Set
Actual Time 6:53 AM CDT 7:22 PM CDT
Civil Twilight 6:26 AM CDT 7:49 PM CDT
Nautical Twilight 5:55 AM CDT 8:20 PM CDT
Astronomical Twilight 5:23 AM CDT 8:52 PM CDT
Moon 9:12 PM CDT 7:22 AM CDT
Length of Visible Light 13h 22m
Length of Day
12h 29m
Full, 98% of the Moon is Illuminated
Mar 28
Full
Apr 2
Last Quarter
Apr 10
New
Apr 18
First Quarter
Apr 25
Full

Hourly Weather History & Observations

Time (CDT) Temp. Windchill Dew Point Humidity Pressure Visibility Wind Dir Wind Speed Gust Speed Precip Events Conditions
12:54 AM 37.0 °F - 30.0 °F 76% 30.34 in 10.0 mi Calm Calm - N/A   Overcast
1:54 AM 39.0 °F 36.8 °F 28.9 °F 67% 30.34 in 10.0 mi NE 3.5 mph - N/A   Overcast
2:54 AM 37.0 °F - 28.9 °F 73% 30.34 in 10.0 mi Calm Calm - N/A   Overcast
3:54 AM 37.0 °F 34.5 °F 28.0 °F 70% 30.33 in 10.0 mi East 3.5 mph - N/A   Overcast
4:54 AM 36.0 °F 32.1 °F 28.9 °F 76% 30.34 in 10.0 mi East 4.6 mph - N/A   Overcast
5:54 AM 36.0 °F 32.1 °F 28.0 °F 73% 30.35 in 10.0 mi East 4.6 mph - N/A   Overcast
6:54 AM 37.0 °F 34.5 °F 25.0 °F 62% 30.36 in 10.0 mi East 3.5 mph - N/A   Overcast
7:54 AM 37.0 °F 31.6 °F 25.0 °F 62% 30.36 in 10.0 mi East 6.9 mph - N/A   Mostly Cloudy
8:54 AM 39.9 °F 35.1 °F 25.0 °F 55% 30.37 in 10.0 mi East 6.9 mph - N/A   Mostly Cloudy
9:54 AM 42.1 °F 37.1 °F 26.1 °F 53% 30.37 in 10.0 mi East 8.1 mph - N/A   Partly Cloudy
10:54 AM 45.0 °F 41.8 °F 28.0 °F 52% 30.36 in 10.0 mi ESE 5.8 mph - N/A   Mostly Cloudy
11:54 AM 48.0 °F - 30.0 °F 50% 30.35 in 10.0 mi East 10.4 mph - N/A   Mostly Cloudy
12:54 PM 51.1 °F - 32.0 °F 48% 30.34 in 10.0 mi ESE 5.8 mph - N/A   Partly Cloudy
1:54 PM 53.1 °F - 34.0 °F 48% 30.30 in 10.0 mi East 8.1 mph - N/A   Overcast
2:54 PM 54.0 °F - 34.0 °F 47% 30.28 in 10.0 mi East 11.5 mph - N/A   Mostly Cloudy
3:54 PM 55.0 °F - 34.0 °F 45% 30.25 in 10.0 mi ESE 6.9 mph 18.4 mph N/A   Mostly Cloudy
4:54 PM 55.9 °F - 35.1 °F 45% 30.23 in 10.0 mi East 8.1 mph - N/A   Mostly Cloudy
5:54 PM 55.9 °F - 36.0 °F 47% 30.23 in 10.0 mi East 9.2 mph - N/A   Mostly Cloudy
6:54 PM 54.0 °F - 36.0 °F 51% 30.24 in 10.0 mi East 10.4 mph - N/A   Mostly Cloudy
7:54 PM 52.0 °F - 35.1 °F 53% 30.24 in 10.0 mi East 6.9 mph - N/A   Mostly Cloudy
8:54 PM 51.1 °F - 35.1 °F 54% 30.25 in 10.0 mi East 8.1 mph - N/A   Mostly Cloudy
9:54 PM 51.1 °F - 35.1 °F 54% 30.25 in 10.0 mi East 6.9 mph - N/A   Overcast
10:54 PM 50.0 °F - 35.1 °F 57% 30.25 in 10.0 mi Variable 4.6 mph - N/A   Mostly Cloudy
11:54 PM 48.9 °F - 35.1 °F 59% 30.25 in 10.0 mi ESE 4.6 mph - N/A   Scattered Clouds